Simultaneous Nadir Overpasses (SNOs) Predictions

Prediction of SNOs between AQUA and GOES-15 Satellite Orbit:

Table of predicted SNOs for the next 14.0 days since TLE Epoch: 5/9/2020
Index Date Time (AQUA) AQUA Lat,Lon GOES-15 Lat,Lon Distance(km) Time Diff (sec)
1 05/09/2020 10:13:25 0.13,-129.40 -0.09,-128.31 124.49 80
2 05/11/2020 10:01:13 -0.52,-126.45 -0.09,-128.31 212.54 80
3 05/11/2020 22:22:37 -0.62,-131.63 0.07,-128.30 378.60 80
4 05/13/2020 22:10:24 -0.02,-128.67 0.07,-128.30 41.61 80
5 05/15/2020 21:58:12 0.64,-125.71 0.07,-128.31 295.35 80
6 05/16/2020 10:19:26 0.50,-130.86 -0.05,-128.32 288.37 80
7 05/18/2020 10:07:14 -0.17,-127.90 -0.06,-128.32 48.11 80
8 05/20/2020 09:55:01 -0.77,-124.94 -0.06,-128.32 384.12 80
9 05/20/2020 22:16:25 -0.35,-130.13 0.04,-128.30 208.06 80
10 05/22/2020 22:04:12 0.26,-127.16 0.05,-128.29 127.34 80




NCC Satellite Simultaneous Nadir Overpasses (SNOs) Prediction Service
